Date,TemperatureHighF,TemperatureAvgF,TemperatureLowF,DewpointHighF,DewpointAvgF,DewpointLowF,HumidityHigh,HumidityAvg,HumidityLow,PressureMaxIn,PressureMinIn,WindSpeedMaxMPH,WindSpeedAvgMPH,GustSpeedMaxMPH,PrecipitationSumIn
2013-1-1,35.4,28.5,16.1,27.4,16.4,2.7,76,60,52,29.82,29.59,13,6,28,0.00
2013-1-2,26.0,16.6,6.0,15.9,7.8,-2.4,83,68,55,30.06,29.80,10,4,16,0.00
2013-1-3,18.9,9.2,-1.5,7.4,-1.5,-7.6,79,62,37,30.06,29.87,5,1,8,0.00
2013-1-4,37.6,28.0,13.1,22.7,18.0,6.6,84,67,52,29.87,29.68,10,4,18,0.02
2013-1-5,38.8,33.2,22.6,25.0,20.8,15.3,80,61,44,30.12,29.74,11,4,21,0.03
2013-1-6,38.3,30.3,22.9,29.5,24.9,17.5,100,81,67,30.07,29.80,7,2,14,0.04
2013-1-7,35.9,30.2,21.0,30.6,21.6,16.2,90,71,51,30.25,29.84,11,2,19,0.01
2013-1-8,42.8,29.7,17.9,28.9,22.1,14.5,90,74,53,30.25,30.14,8,3,14,0.00
2013-1-9,43.7,29.2,19.9,32.5,24.6,18.2,94,84,52,30.26,29.88,10,2,19,0.00
2013-1-10,44.0,38.9,29.9,31.4,24.7,22.3,78,57,43,30.42,29.94,13,5,29,0.00
2013-1-11,34.4,29.6,23.6,31.0,25.8,21.0,95,86,71,30.41,30.06,5,0,6,0.12
2013-1-12,40.0,35.9,32.1,39.2,35.0,31.0,97,97,95,30.07,29.99,5,1,7,0.04
2013-1-13,43.0,39.3,35.0,42.5,38.7,34.2,98,98,97,30.02,29.85,6,2,10,0.01
2013-1-14,52.5,42.9,34.7,48.4,37.0,26.4,99,81,57,30.15,29.74,11,4,19,0.01
2013-1-15,39.1,33.3,27.5,28.6,25.4,23.5,92,73,56,30.22,30.09,6,1,10,0.00
2013-1-16,32.1,30.4,28.8,30.6,28.5,25.3,96,93,86,30.12,29.69,2,0,4,0.01
2013-1-17,38.7,31.3,25.1,31.6,23.6,10.6,97,75,52,29.99,29.71,9,2,19,0.07
2013-1-18,25.1,19.1,13.0,13.2,2.2,-5.1,62,48,34,30.29,29.93,12,4,25,0.00
2013-1-19,44.1,31.9,19.6,26.5,18.6,8.1,71,58,45,30.21,29.71,16,8,30,0.01
2013-1-20,45.5,36.3,23.9,32.2,23.6,10.5,77,61,36,29.84,29.42,17,9,28,0.01
2013-1-21,25.0,21.4,18.3,19.0,11.2,4.7,91,66,51,29.94,29.66,10,3,17,0.00
2013-1-22,21.1,16.4,9.2,18.2,5.3,-4.4,91,63,39,29.96,29.64,12,4,24,0.00
2013-1-23,11.8,7.4,3.1,3.9,-7.6,-10.9,80,50,37,30.03,29.94,15,4,29,0.00
2013-1-24,16.8,6.9,-2.6,-2.1,-6.9,-10.2,92,55,32,30.15,29.99,12,4,23,0.00
2013-1-25,19.7,11.4,1.8,11.3,-3.0,-10.0,85,54,30,30.22,29.94,8,1,12,0.00
2013-1-26,21.9,14.1,7.8,10.2,2.5,-4.7,86,62,33,30.15,29.90,13,3,23,0.00
2013-1-27,29.2,16.1,3.4,8.0,3.1,0.1,91,60,31,30.36,30.14,5,1,10,0.00
2013-1-28,22.3,17.3,11.3,20.6,13.6,5.2,93,85,70,30.35,29.89,3,0,6,0.00
2013-1-29,32.8,28.0,22.3,30.7,25.4,20.6,95,90,82,30.06,29.90,4,1,6,0.04
2013-1-30,52.4,40.6,32.0,51.9,39.9,30.7,98,97,95,30.00,29.24,10,3,22,0.16
2013-1-31,59.0,42.2,24.9,57.4,35.2,18.0,98,77,44,29.48,28.79,25,11,39,0.81
2013-2-1,28.3,24.2,19.0,23.1,10.8,4.5,92,57,38,29.97,29.48,14,6,25,0.00
2013-2-2,27.4,21.1,12.3,15.4,7.7,3.1,74,57,40,30.10,29.90,16,5,23,0.00
2013-2-3,30.1,23.6,16.6,17.1,14.6,12.9,89,69,53,29.92,29.62,4,0,7,0.00
2013-2-4,26.0,21.9,17.3,15.1,9.7,4.6,79,60,42,29.82,29.61,15,4,24,0.00
2013-2-5,30.9,23.3,16.4,21.4,12.7,6.8,85,64,47,29.89,29.78,8,2,11,0.00
2013-2-6,34.5,27.0,21.6,27.6,16.4,3.0,92,67,38,30.19,29.78,10,4,22,0.00
2013-2-7,29.5,22.9,13.6,8.8,5.1,2.6,75,48,33,30.40,30.18,8,1,14,0.00
2013-2-8,27.4,23.6,18.2,24.2,17.0,3.5,93,78,39,30.32,29.63,16,6,29,0.00
2013-2-9,20.0,16.8,12.5,18.3,14.9,10.1,93,92,90,30.15,29.62,16,8,30,0.00
2013-2-10,31.6,18.5,6.0,29.6,16.3,3.5,93,91,88,30.34,30.15,3,1,8,0.00
2013-2-11,32.7,24.9,15.9,32.1,23.6,13.9,98,95,91,30.21,29.52,6,0,9,0.03
2013-2-12,39.2,36.0,32.5,34.2,29.8,23.3,97,79,64,29.77,29.54,11,5,30,0.17
2013-2-13,39.8,34.3,29.8,25.0,23.5,21.6,77,65,49,29.75,29.60,9,2,14,0.00
2013-2-14,42.9,33.1,25.5,24.5,22.3,20.6,82,66,42,29.84,29.60,8,1,13,0.00
2013-2-15,50.1,36.4,25.7,31.9,27.3,22.0,93,71,43,29.84,29.75,10,2,17,0.00
2013-2-16,37.3,32.3,25.4,30.9,22.9,6.0,100,70,43,29.86,29.63,12,3,22,0.05
2013-2-17,25.4,20.4,13.4,7.0,2.9,-0.9,61,46,38,29.68,29.41,19,10,31,0.00
2013-2-18,28.4,19.1,10.7,4.3,-0.4,-3.2,58,43,26,30.03,29.68,12,5,26,0.00
2013-2-19,42.4,29.9,16.6,37.1,21.0,2.3,97,71,44,30.05,29.45,14,2,24,0.07
2013-2-20,36.5,28.7,24.5,35.7,17.8,11.1,97,64,46,29.70,29.45,14,7,28,0.00
2013-2-21,30.2,25.1,21.4,17.4,12.7,8.8,76,59,47,30.17,29.67,14,7,27,0.00
2013-2-22,40.6,31.1,19.4,26.2,19.9,15.8,88,65,45,30.28,30.15,10,2,17,0.00
2013-2-23,34.1,32.9,31.7,32.8,28.7,24.0,95,85,73,30.18,29.79,10,2,16,0.03
2013-2-24,37.8,33.9,32.4,35.4,32.5,31.0,96,94,90,29.79,29.61,6,2,13,0.16
2013-2-25,37.8,33.1,27.5,33.0,30.5,26.3,96,90,78,30.12,29.79,1,0,4,0.09
2013-2-26,40.2,35.4,31.4,34.8,30.6,27.8,97,84,65,30.20,30.02,7,1,12,0.01
2013-2-27,38.6,35.5,32.5,37.0,33.2,29.4,96,91,79,30.02,29.50,8,4,23,0.78
2013-2-28,40.2,34.6,31.4,36.3,32.8,30.2,97,93,84,29.50,29.42,4,0,8,0.02
2013-3-1,42.1,36.3,31.1,33.5,28.9,25.1,97,76,56,29.59,29.43,14,4,21,0.00
2013-3-2,38.5,34.6,30.4,28.1,26.1,23.0,76,71,64,29.59,29.52,11,5,19,0.00
2013-3-3,35.8,31.2,27.4,28.3,24.4,21.2,87,76,69,29.56,29.48,9,4,19,0.01
2013-3-4,37.7,30.9,25.3,24.2,21.4,18.2,76,68,55,29.70,29.52,12,6,26,0.00
2013-3-5,45.2,35.5,28.9,30.1,25.2,21.0,79,66,52,29.95,29.69,9,3,18,0.00
2013-3-6,38.6,35.6,33.3,33.5,30.1,26.9,92,80,71,30.00,29.92,11,5,27,0.00
2013-3-7,36.6,33.0,30.9,31.8,28.7,25.8,94,84,68,29.99,29.92,12,6,25,0.03
2013-3-8,40.6,33.9,29.6,30.8,27.9,25.0,96,80,55,30.09,29.86,13,6,22,0.03
2013-3-9,55.2,40.6,29.3,25.2,20.8,10.7,78,50,18,30.22,30.07,10,3,19,0.00
2013-3-10,51.6,38.4,24.3,33.0,27.6,21.8,92,67,42,30.28,30.11,10,3,19,0.00
2013-3-11,48.2,41.5,34.8,42.4,35.3,31.4,92,79,68,30.17,29.98,13,8,23,0.00
2013-3-12,52.7,48.3,41.8,51.2,46.2,38.2,96,93,85,29.98,29.56,12,5,23,0.65
2013-3-13,46.9,40.3,35.1,39.5,27.1,18.7,92,61,37,29.69,29.61,11,4,22,0.01
2013-3-14,35.1,27.7,21.5,25.7,13.6,6.4,72,55,43,29.75,29.63,12,6,27,0.00
2013-3-15,38.1,28.6,18.0,30.9,16.2,5.6,92,61,31,29.76,29.52,13,5,23,0.00
2013-3-16,37.4,30.7,24.5,27.2,15.3,9.0,86,54,32,29.77,29.59,9,2,14,0.00
2013-3-17,35.8,28.7,23.1,17.9,9.6,-0.2,73,47,24,30.19,29.76,15,5,28,0.00
2013-3-18,39.2,27.5,14.6,25.4,7.9,1.1,89,48,20,30.34,30.06,13,2,20,0.00
2013-3-19,34.3,30.4,27.5,31.9,28.5,25.2,95,93,87,30.06,29.56,6,3,10,0.11
2013-3-20,35.3,29.2,23.5,27.4,21.6,19.7,93,74,55,29.69,29.60,12,4,22,0.19
2013-3-21,42.8,29.0,15.4,21.1,16.4,11.3,92,63,32,29.69,29.47,6,1,12,0.17
2013-3-22,37.3,29.3,18.2,23.4,18.9,15.0,98,66,46,29.65,29.52,13,4,25,0.00
2013-3-23,39.6,33.5,27.0,23.8,20.3,17.5,80,59,42,29.70,29.57,15,6,27,0.00
2013-3-24,43.1,36.7,30.6,25.0,23.0,19.2,71,58,46,29.72,29.60,10,4,18,0.00
2013-3-25,42.9,36.3,30.2,30.5,26.0,23.2,76,67,50,29.65,29.37,8,2,16,0.00
2013-3-26,44.9,37.7,29.5,32.2,26.2,19.1,92,65,39,29.69,29.45,8,2,15,0.00
2013-3-27,50.4,37.7,23.9,32.6,26.2,21.3,92,66,37,29.78,29.65,11,3,20,0.00
2013-3-28,50.8,42.2,34.9,36.6,31.6,28.5,91,68,44,29.92,29.77,9,2,16,0.02
2013-3-29,55.8,42.3,31.0,36.1,31.4,28.1,92,68,37,29.95,29.86,8,2,17,0.00
2013-3-30,55.8,43.2,29.0,33.5,25.0,17.1,93,55,23,29.98,29.89,9,2,17,0.00
2013-3-31,54.9,41.3,26.7,39.5,28.6,23.0,90,65,30,29.99,29.60,21,5,32,0.07
2013-4-1,54.4,41.6,31.4,44.2,33.0,11.9,95,74,37,29.70,29.40,16,6,30,0.06
2013-4-2,36.1,31.1,26.7,17.3,13.8,8.5,67,49,34,29.83,29.70,17,8,33,0.00
2013-4-3,41.6,33.6,26.9,18.4,13.8,9.0,60,45,27,30.09,29.82,14,7,30,0.00
2013-4-4,53.9,40.2,27.8,26.4,18.2,11.2,66,44,22,30.19,29.89,12,5,23,0.00
2013-4-5,56.7,44.0,33.7,31.3,27.1,20.7,89,56,25,29.89,29.56,12,6,22,0.00
2013-4-6,46.8,37.0,29.5,28.9,10.8,3.5,69,35,19,30.19,29.79,14,6,30,0.00
2013-4-7,55.0,40.5,25.8,40.4,27.1,15.0,84,60,36,30.18,29.82,25,8,36,0.02
2013-4-8,66.0,51.5,37.3,40.4,37.1,31.3,95,63,28,29.95,29.84,9,1,14,0.00
2013-4-9,62.5,54.7,45.8,50.4,43.2,35.5,92,67,50,29.89,29.74,14,4,28,0.08
2013-4-10,63.6,55.1,47.9,51.8,49.8,46.8,96,83,63,29.84,29.71,8,2,12,0.08
2013-4-11,48.1,43.8,36.2,46.7,37.3,29.2,96,79,55,30.02,29.73,9,5,18,0.01
2013-4-12,36.6,35.1,33.7,34.0,32.8,31.1,95,91,85,30.03,29.70,5,2,19,0.29
2013-4-13,52.6,42.8,33.7,40.2,35.3,32.4,95,77,50,29.82,29.68,10,2,17,0.18
2013-4-14,48.5,42.3,32.4,37.0,31.2,25.7,91,67,44,30.12,29.79,12,4,33,0.00
2013-4-15,58.5,44.7,28.0,35.3,31.0,26.2,94,63,38,30.25,30.11,11,3,20,0.00
2013-4-16,62.1,51.5,41.0,51.8,42.8,31.2,92,72,54,30.24,29.93,21,10,37,0.05
2013-4-17,63.7,54.6,45.4,51.8,35.5,26.4,94,52,27,30.22,29.95,10,4,20,0.01
2013-4-18,61.5,49.9,34.0,45.6,33.9,28.9,88,58,34,30.29,29.99,18,7,32,0.00
2013-4-19,71.7,60.2,49.7,62.0,55.8,45.5,97,86,71,29.99,29.47,22,10,35,0.30
2013-4-20,57.8,47.8,37.1,54.8,35.3,21.5,96,65,35,30.16,29.51,15,5,24,0.37
2013-4-21,53.2,41.9,31.2,24.7,19.6,13.8,67,43,22,30.54,30.16,10,4,21,0.00
2013-4-22,55.0,42.7,30.1,29.8,25.0,18.7,83,53,25,30.60,30.45,14,5,22,0.00
2013-4-23,42.4,39.6,36.8,37.2,33.6,29.2,88,79,72,30.46,30.03,8,4,14,0.00
2013-4-24,73.8,55.3,40.0,48.9,43.4,36.7,92,68,35,30.02,29.62,15,7,31,0.00
2013-4-25,59.7,51.2,42.2,48.7,32.9,23.6,93,53,27,30.15,29.66,13,6,24,0.02
2013-4-26,65.6,50.5,32.6,36.9,32.1,27.3,87,54,25,30.29,30.15,8,2,19,0.00
2013-4-27,68.3,54.3,37.1,39.9,34.3,23.8,87,51,21,30.29,30.12,8,1,13,0.00
2013-4-28,71.3,56.6,39.3,45.2,36.7,31.5,92,52,25,30.20,30.02,11,3,22,0.00
2013-4-29,66.1,56.1,47.6,46.4,36.6,26.2,72,49,33,30.12,30.05,12,4,20,0.00
2013-4-30,74.0,60.8,51.2,41.4,32.6,25.5,69,37,20,30.20,30.11,9,2,18,0.00
2013-5-1,77.0,60.3,40.1,44.5,33.6,25.5,77,41,17,30.33,30.20,8,2,18,0.00
2013-5-2,84.1,61.8,44.1,46.3,39.9,26.6,89,50,19,30.34,30.14,12,2,25,0.00
2013-5-3,70.0,56.3,40.9,44.9,39.7,31.0,81,55,36,30.39,30.22,10,3,19,0.00
2013-5-4,74.1,57.7,41.5,48.6,38.2,20.1,95,55,23,30.25,30.09,11,3,19,0.00
2013-5-5,72.9,56.0,37.1,41.9,34.5,24.3,87,49,17,30.19,30.04,11,2,17,0.00
2013-5-6,74.1,56.9,38.9,49.1,40.0,30.7,94,60,21,30.15,29.97,7,2,14,0.00
2013-5-7,79.7,65.1,46.8,56.6,49.4,40.6,94,62,26,30.04,29.91,11,3,18,0.00
2013-5-8,72.3,62.9,53.7,62.1,57.7,51.7,95,84,59,30.05,29.90,12,2,23,0.22
2013-5-9,70.1,61.7,56.2,60.3,57.5,54.9,97,87,62,29.90,29.74,9,1,13,0.12
2013-5-10,77.3,65.1,52.4,62.3,55.4,51.7,98,74,43,29.86,29.75,9,2,14,0.07
2013-5-11,66.5,61.9,58.1,63.2,59.0,54.7,96,91,68,29.75,29.55,13,5,21,0.09
2013-5-12,64.8,56.9,45.2,60.1,46.3,28.8,100,71,35,29.72,29.48,11,2,26,0.03
2013-5-13,50.9,45.6,40.1,34.3,29.7,26.4,79,55,39,29.95,29.71,8,3,16,0.01
2013-5-14,57.2,47.9,36.8,42.9,33.1,26.9,91,60,33,29.95,29.87,7,1,15,0.00
2013-5-15,58.8,46.4,32.8,53.7,41.5,31.0,96,85,49,29.94,29.55,16,3,23,0.01
2013-5-16,78.5,64.1,44.7,51.8,41.3,29.4,97,52,20,29.69,29.53,13,5,27,0.01
2013-5-17,69.1,58.3,48.4,43.8,39.8,30.7,78,53,26,30.10,29.69,10,4,21,0.01
2013-5-18,73.2,58.3,41.7,48.6,43.2,38.1,93,62,31,30.18,30.08,10,3,20,0.00
2013-5-19,64.9,56.1,47.5,55.8,51.4,45.1,96,85,67,30.20,30.06,10,3,19,0.01
2013-5-20,80.6,66.3,54.7,65.7,59.7,53.6,98,81,56,30.06,29.81,8,2,13,0.00
2013-5-21,91.0,68.4,52.8,70.1,61.3,51.1,98,81,43,29.94,29.67,15,2,27,0.01
2013-5-22,73.1,62.0,52.7,69.0,59.5,-99.9,97,92,81,29.87,29.71,10,3,15,0.01
2013-5-23,72.6,66.7,62.4,69.0,65.0,60.0,97,94,86,29.75,29.64,12,6,26,0.00
2013-5-24,66.3,57.8,44.5,64.5,54.7,42.7,98,90,75,29.79,29.51,10,5,24,0.01
2013-5-25,46.9,43.9,40.2,44.0,41.7,37.6,95,92,85,29.78,29.68,10,5,25,0.00
2013-5-26,56.5,47.3,39.2,42.2,39.3,37.1,92,75,55,30.00,29.67,12,4,25,0.01
2013-5-27,71.0,55.8,36.4,45.5,38.9,31.9,100,59,27,30.06,29.96,9,2,18,0.00
2013-5-28,73.7,59.6,42.4,54.8,45.6,39.8,95,64,31,30.12,30.00,10,3,23,0.00
2013-5-29,70.5,62.1,56.9,65.5,59.6,54.7,97,92,82,30.03,29.85,9,2,16,0.00
2013-5-30,88.0,73.9,61.3,72.0,64.8,60.7,99,77,45,29.98,29.90,7,2,14,0.01
2013-5-31,93.4,77.7,60.8,72.5,64.9,59.4,97,69,33,30.00,29.81,10,2,16,0.00
2013-6-1,92.7,78.9,65.6,71.4,67.1,62.3,92,69,37,29.86,29.72,10,4,18,0.00
2013-6-2,87.3,75.3,67.3,72.2,68.3,65.1,95,80,57,29.76,29.57,17,6,28,0.00
2013-6-3,76.0,67.7,55.4,66.4,59.2,43.4,98,77,49,29.77,29.67,7,2,19,0.00
2013-6-4,72.9,60.6,49.8,50.0,43.7,39.3,79,55,36,29.99,29.77,10,3,19,0.00
2013-6-5,74.4,61.6,48.0,54.1,49.1,45.0,95,67,38,30.08,29.95,9,2,14,0.00
2013-6-6,72.1,61.6,51.9,55.5,51.9,47.4,94,73,44,30.06,29.95,12,2,18,0.00
2013-6-7,56.2,53.7,51.3,53.4,52.0,49.8,96,94,84,29.98,29.71,5,2,14,0.00
2013-6-8,75.7,62.3,51.1,62.0,56.4,50.0,97,82,59,29.91,29.56,8,3,16,0.00
2013-6-9,77.6,67.0,54.8,59.9,55.7,53.2,95,70,44,30.06,29.91,8,2,17,0.00
2013-6-10,70.9,61.0,53.9,63.2,58.1,52.6,97,90,74,30.08,29.86,7,1,13,0.00
2013-6-11,63.5,59.0,55.9,59.6,57.1,54.2,97,93,84,29.86,29.47,4,1,10,0.00
2013-6-12,69.1,62.6,54.6,58.5,54.2,51.7,94,75,56,29.73,29.47,12,4,26,0.00
2013-6-13,57.1,53.6,49.9,56.2,52.4,48.8,97,95,90,29.72,29.58,5,0,11,0.00
2013-6-14,77.3,62.0,51.3,59.6,53.0,45.7,97,76,34,29.71,29.56,5,1,12,0.00
2013-6-15,77.7,65.5,49.6,55.8,48.9,39.7,96,61,27,29.84,29.71,8,2,19,0.00
2013-6-16,70.1,64.1,52.8,61.3,55.0,47.5,84,73,57,29.84,29.58,8,2,14,0.00
2013-6-17,82.5,67.6,58.8,64.6,60.0,55.8,96,79,43,29.80,29.67,9,2,16,0.00
2013-6-18,66.2,61.1,58.0,63.1,59.5,57.2,98,95,87,29.83,29.77,4,1,12,0.00
2013-6-19,75.7,68.5,53.3,50.1,46.3,41.0,82,47,33,30.07,29.92,5,1,14,0.00
2013-6-20,79.9,64.0,46.5,57.0,50.0,42.1,94,65,27,30.17,30.06,9,1,19,0.00
2013-6-21,84.8,70.3,55.9,62.9,54.2,44.5,93,62,26,30.14,30.07,7,1,12,0.00
2013-6-22,84.3,71.6,57.6,67.4,60.1,54.5,91,69,43,30.11,29.97,10,3,19,0.00
2013-6-23,89.4,76.8,64.3,74.1,65.7,58.4,82,69,52,30.03,29.85,11,5,20,0.00
2013-6-24,92.7,77.5,68.2,74.3,69.1,63.0,95,78,48,29.92,29.78,9,3,16,0.00
2013-6-25,90.0,76.3,65.6,73.5,68.3,64.5,97,79,48,29.86,29.62,10,3,17,0.00
2013-6-26,79.9,73.8,67.9,70.7,67.6,65.2,95,82,68,29.74,29.63,5,1,12,0.00
2013-6-27,82.5,71.8,65.1,72.6,67.4,63.6,97,87,66,29.73,29.60,9,2,20,0.00
2013-6-28,81.7,70.5,62.9,73.3,66.7,61.1,97,88,71,29.60,29.34,14,4,22,0.00
2013-6-29,82.5,74.8,69.2,71.2,69.0,67.3,97,83,61,29.59,29.38,13,5,23,0.00
2013-6-30,84.3,74.1,69.1,73.2,69.7,67.3,96,87,65,29.82,29.59,12,3,20,0.00
2013-7-1,78.0,72.8,70.1,74.9,71.2,68.8,97,94,86,29.95,29.82,7,1,14,0.00
2013-7-2,83.4,76.1,71.8,75.2,72.0,70.1,96,88,73,30.05,29.94,11,6,18,0.01
2013-7-3,86.3,78.5,72.7,74.7,72.3,70.8,94,82,63,30.09,30.02,9,4,13,0.02
2013-7-4,90.2,80.8,72.4,76.7,73.1,71.0,97,79,57,30.11,29.98,11,4,20,0.02
2013-7-5,91.1,82.6,72.6,76.6,73.5,71.1,95,75,55,30.07,29.92,10,3,17,0.01
2013-7-6,88.9,79.5,71.7,74.9,70.6,65.4,95,76,49,29.99,29.90,6,1,14,0.11
2013-7-7,89.8,76.1,67.6,76.8,70.3,65.4,94,83,62,29.95,29.81,7,1,11,0.35
2013-7-8,88.1,77.4,71.4,73.8,70.5,68.0,97,81,56,29.95,29.81,8,1,15,0.00
2013-7-9,83.2,75.0,70.2,73.4,69.6,67.5,93,84,65,29.99,29.92,8,2,14,0.73
2013-7-10,84.3,74.6,69.8,77.1,71.4,67.5,96,90,73,29.94,29.68,13,5,23,0.11
2013-7-11,85.5,75.6,69.1,73.1,70.0,61.5,97,84,54,29.86,29.65,5,1,10,0.01
2013-7-12,83.9,72.2,64.3,65.6,61.5,55.8,87,71,50,30.10,29.86,4,1,12,0.00
2013-7-13,75.7,70.2,64.1,68.6,64.3,59.8,92,82,69,30.20,30.10,2,0,7,0.00
2013-7-14,89.3,79.0,68.1,76.1,71.1,66.6,96,79,54,30.22,30.10,5,1,12,0.00
2013-7-15,94.6,80.6,69.5,75.6,70.7,65.5,97,75,40,30.12,30.01,5,0,11,0.00
2013-7-16,93.9,81.2,68.3,73.7,69.3,64.8,95,71,40,30.09,30.02,6,1,15,0.00
2013-7-17,94.7,81.4,67.6,75.1,70.7,66.4,96,73,43,30.10,29.91,7,1,12,0.00
2013-7-18,94.5,84.1,73.3,76.1,72.5,68.5,92,70,44,29.93,29.82,7,2,13,0.00
2013-7-19,95.7,84.2,72.4,76.9,73.0,66.6,93,71,48,29.84,29.61,9,3,19,0.00
2013-7-20,87.8,79.4,70.7,75.3,68.0,61.2,84,69,51,29.74,29.57,7,1,18,0.00
2013-7-21,86.7,75.3,62.9,67.7,63.4,59.7,94,69,42,29.88,29.74,6,0,11,0.00
2013-7-22,86.6,73.7,64.4,69.9,65.7,60.6,94,78,55,29.92,29.75,8,2,15,0.05
2013-7-23,83.2,71.9,66.1,74.1,68.7,65.2,98,90,68,29.75,29.43,4,0,13,2.68
2013-7-24,80.8,72.1,58.8,70.6,62.7,50.6,98,75,47,29.90,29.50,9,3,17,0.00
2013-7-25,74.8,63.3,53.8,61.0,54.1,47.6,89,73,54,30.00,29.90,5,1,15,0.00
2013-7-26,72.1,64.9,60.9,65.5,61.2,58.9,95,88,71,29.97,29.89,5,0,10,0.10
2013-7-27,82.2,69.0,55.5,67.0,61.4,54.7,98,79,53,29.97,29.87,9,3,17,0.01
2013-7-28,81.3,71.4,62.2,69.2,64.8,60.5,96,81,62,29.92,29.84,6,1,12,0.00
2013-7-29,83.9,74.3,66.7,70.1,65.0,60.7,94,74,50,29.98,29.85,11,2,15,0.00
2013-7-30,80.5,70.0,57.5,63.4,58.6,54.9,96,69,43,30.03,29.95,5,1,13,0.00
2013-7-31,81.2,70.8,57.6,64.5,59.7,55.9,95,70,45,30.06,29.93,7,1,12,0.00
2013-8-1,78.3,65.5,59.2,68.0,62.6,57.9,97,91,69,29.94,29.76,11,3,25,0.59
2013-8-2,81.2,71.1,64.0,67.9,61.7,54.8,98,76,41,29.77,29.69,8,2,15,0.00
2013-8-3,80.6,69.3,60.0,63.4,57.8,51.5,95,70,38,29.77,29.68,8,2,17,0.00
2013-8-4,79.7,66.2,56.9,60.5,55.7,51.7,90,71,41,29.83,29.69,7,1,14,0.00
2013-8-5,76.3,63.0,51.5,56.6,49.8,41.8,97,68,33,29.95,29.82,7,1,16,0.00
2013-8-6,77.7,64.3,49.0,57.9,52.4,47.7,96,69,37,30.03,29.95,8,2,13,0.00
2013-8-7,78.2,68.1,58.2,62.4,58.8,55.3,94,74,46,30.07,29.97,9,4,18,0.00
2013-8-8,80.4,73.0,65.5,71.7,67.8,62.3,95,84,73,29.97,29.88,11,6,19,0.01
2013-8-9,76.5,72.8,69.3,73.9,70.8,67.5,97,94,89,29.90,29.65,11,4,23,1.67
2013-8-10,79.6,71.6,62.7,69.2,59.1,50.8,97,67,42,29.93,29.71,9,3,18,0.00
2013-8-11,80.2,66.3,52.1,61.1,54.9,50.4,95,70,39,29.99,29.90,6,1,12,0.00
2013-8-12,81.5,68.5,55.6,63.4,58.9,54.2,98,74,45,29.93,29.80,8,1,14,0.00
2013-8-13,72.4,67.0,62.5,68.9,64.3,60.4,96,91,84,29.81,29.57,8,1,12,0.23
2013-8-14,71.9,62.8,54.5,64.1,54.2,49.5,96,74,53,29.87,29.58,8,2,21,0.00
2013-8-15,74.9,62.2,50.8,57.2,52.4,48.7,94,73,44,30.01,29.87,8,2,17,0.00
2013-8-16,78.9,64.2,50.8,61.5,53.8,49.1,96,73,38,30.09,30.00,6,1,12,0.00
2013-8-17,82.8,66.6,52.7,64.8,56.9,51.2,97,75,37,30.18,30.09,4,0,8,0.00
2013-8-18,77.6,67.0,57.7,65.6,60.9,56.6,97,82,54,30.17,29.98,5,1,10,0.00
2013-8-19,79.3,68.2,57.3,67.1,61.3,56.2,98,80,54,29.98,29.86,4,1,11,0.01
2013-8-20,84.7,70.6,58.7,66.7,61.7,57.9,98,76,46,30.00,29.90,6,1,11,0.00
2013-8-21,87.0,72.2,58.7,69.1,63.0,57.5,98,76,46,30.06,29.92,6,1,13,0.00
2013-8-22,84.9,73.7,61.8,73.0,67.6,60.4,96,82,60,29.93,29.72,11,3,22,0.00
2013-8-23,78.9,70.1,59.8,69.2,59.1,51.8,90,69,46,30.04,29.75,6,2,14,0.00
2013-8-24,80.2,64.9,51.2,58.1,52.8,48.9,94,69,34,30.23,30.04,2,0,9,0.00
2013-8-25,80.5,65.4,50.8,60.4,55.2,49.7,97,73,39,30.27,30.06,9,2,16,0.00
2013-8-26,79.3,69.3,61.1,68.1,63.7,58.2,95,83,66,30.07,29.76,8,2,15,0.16
2013-8-27,87.2,74.4,67.4,72.3,68.8,66.5,97,84,56,29.79,29.71,6,1,16,0.36
2013-8-28,86.3,73.5,66.3,74.6,68.6,65.4,98,86,59,29.85,29.73,7,1,15,0.00
2013-8-29,74.7,66.7,62.8,67.3,63.6,59.9,97,90,76,29.96,29.83,5,1,10,0.02
2013-8-30,83.6,71.2,61.6,70.9,65.2,59.6,95,82,57,29.93,29.71,8,2,13,0.00
2013-8-31,78.1,72.2,68.6,73.3,70.2,66.5,97,94,84,29.72,29.66,9,2,15,0.93
2013-9-1,81.2,73.2,66.6,74.4,70.5,65.5,98,92,75,29.77,29.70,10,1,15,0.22
2013-9-2,77.9,72.8,69.0,74.6,70.4,67.5,97,92,81,29.74,29.59,9,1,13,0.30
2013-9-3,74.2,68.8,60.9,69.5,64.2,56.6,98,86,65,29.74,29.59,6,1,11,0.01
2013-9-4,78.0,67.5,57.9,60.4,56.8,53.3,94,71,45,29.82,29.73,9,2,18,0.00
2013-9-5,71.0,61.3,50.5,59.5,51.8,42.2,95,74,36,30.06,29.75,5,1,14,0.00
2013-9-6,68.8,55.1,43.4,49.7,45.2,39.3,97,73,38,30.15,29.98,8,1,15,0.00
2013-9-7,75.3,60.5,46.2,61.2,52.8,44.6,95,78,51,29.99,29.75,8,2,13,0.02
2013-9-8,68.6,61.1,48.5,62.0,52.4,41.2,96,76,40,30.00,29.64,9,2,20,0.01
2013-9-9,65.8,54.8,41.3,52.5,46.8,40.2,97,77,49,30.13,29.99,9,3,17,0.00
2013-9-10,74.1,64.7,56.3,70.3,61.9,51.2,97,91,81,30.02,29.89,11,2,21,0.21
2013-9-11,91.2,77.6,68.8,79.6,73.0,68.0,99,87,66,29.96,29.82,10,3,21,0.25
2013-9-12,78.7,70.0,66.0,75.4,68.3,64.8,98,94,82,29.86,29.56,10,2,15,1.48
2013-9-13,71.8,65.0,56.6,67.4,61.7,51.2,98,89,75,29.71,29.50,9,2,19,0.05
2013-9-14,64.5,57.3,50.3,53.4,51.1,48.4,94,80,64,29.96,29.70,5,1,12,0.00
2013-9-15,69.3,56.2,43.3,54.9,50.0,42.2,97,81,50,30.07,29.93,8,2,15,0.01
2013-9-16,66.7,56.2,45.3,56.7,49.6,36.9,96,79,61,30.17,29.90,9,2,18,0.02
2013-9-17,63.9,49.8,37.2,47.2,40.5,35.4,95,73,43,30.33,30.17,4,1,12,0.00
2013-9-18,70.8,53.4,41.7,54.3,46.8,40.9,98,81,41,30.23,30.02,6,1,10,0.01
2013-9-19,76.1,58.9,46.2,58.1,51.3,43.0,98,79,32,30.05,29.92,6,1,9,0.01
2013-9-20,77.3,61.5,49.6,63.4,55.0,48.8,98,81,51,29.99,29.87,5,1,10,0.00
2013-9-21,71.7,64.1,55.5,65.2,59.5,53.6,96,86,69,29.90,29.55,14,7,27,0.00
2013-9-22,68.3,60.3,50.2,65.6,53.1,43.6,97,78,57,29.76,29.48,12,4,20,0.86
2013-9-23,60.8,51.1,41.5,44.9,42.5,39.8,96,74,52,29.92,29.76,8,2,14,0.00
2013-9-24,67.0,52.0,37.9,46.5,41.6,36.1,94,71,36,29.92,29.72,8,1,14,0.00
2013-9-25,71.7,55.5,40.8,55.1,48.0,39.6,97,78,50,29.87,29.75,3,0,9,0.00
2013-9-26,65.8,56.1,50.4,51.2,48.7,46.0,93,77,53,30.02,29.87,4,1,11,0.00
2013-9-27,63.8,55.2,48.4,54.3,50.5,47.0,95,85,65,30.17,30.02,3,0,7,0.00
2013-9-28,76.0,58.2,46.0,59.2,51.7,45.2,98,82,48,30.23,30.14,4,0,9,0.01
2013-9-29,72.3,57.6,48.9,58.8,50.4,45.4,98,80,48,30.15,29.97,6,1,13,0.00
2013-9-30,73.7,56.1,44.4,55.4,49.1,43.3,97,80,45,30.01,29.84,2,0,6,0.01
2013-10-1,77.6,59.3,47.0,61.5,53.3,46.1,98,83,51,29.88,29.74,4,0,8,0.01
2013-10-2,78.0,63.8,50.0,62.5,56.2,48.6,100,78,55,29.87,29.75,9,2,17,0.01
2013-10-3,74.1,61.2,48.4,57.4,52.3,46.5,95,75,41,29.99,29.86,7,1,11,0.00
2013-10-4,60.6,55.5,51.4,57.3,53.8,50.3,97,94,88,29.98,29.92,4,0,9,0.33
2013-10-5,67.5,60.7,56.3,59.5,57.5,55.2,98,90,71,30.00,29.94,2,0,6,0.06
2013-10-6,59.4,55.4,52.4,58.3,54.1,50.7,98,95,91,30.08,29.98,6,0,13,0.40
2013-10-7,74.4,59.0,53.0,68.8,57.0,51.6,99,94,76,30.01,29.60,21,3,39,0.53
2013-10-8,64.4,54.5,43.4,51.5,44.1,39.4,94,71,41,30.27,29.82,7,2,17,0.00
2013-10-9,65.3,49.0,39.3,46.8,41.9,38.5,97,80,40,30.39,30.24,5,1,12,0.00
2013-10-10,56.7,47.8,41.1,50.3,45.3,40.2,97,91,74,30.25,30.07,2,0,6,0.01
2013-10-11,64.2,49.3,45.9,51.8,47.2,45.1,98,93,57,30.07,30.02,3,0,7,0.00
2013-10-15,68.7,60.2,53.2,56.7,53.5,50.0,92,79,64,30.14,30.01,7,1,0,0.00
2013-10-16,61.3,54.4,49.5,53.2,50.6,47.9,95,87,74,30.02,29.77,2,0,0,0.00
2013-10-17,72.3,60.5,51.6,59.6,51.5,47.2,95,75,42,29.77,29.50,11,2,0,0.04
2013-10-18,63.4,56.6,44.2,60.4,46.1,37.8,96,69,49,29.81,29.46,11,3,0,0.04
2013-10-19,63.9,52.3,39.5,48.1,42.0,37.3,93,71,43,29.85,29.59,12,4,0,0.02
2013-10-20,58.4,50.7,41.4,48.0,39.0,33.3,94,66,40,29.91,29.58,9,3,0,0.01
2013-10-21,65.2,52.0,36.8,44.2,40.1,34.6,93,66,42,29.99,29.84,10,4,15,0.00
2013-10-22,58.0,49.9,43.2,53.8,44.3,34.1,94,81,65,29.84,29.59,6,1,18,0.01
2013-10-23,52.6,43.6,35.2,39.2,35.2,32.1,92,74,49,29.68,29.47,6,1,9,0.00
2013-10-24,50.1,43.6,36.6,35.8,30.8,26.3,81,62,40,29.82,29.58,11,4,0,0.00
2013-10-25,48.3,41.1,33.4,36.3,29.4,26.5,92,65,43,30.03,29.81,9,3,20,0.00
2013-10-26,52.6,41.8,30.1,35.4,30.2,27.5,93,67,38,30.03,29.73,16,5,29,0.00
2013-10-27,50.9,46.2,40.4,36.7,32.5,29.4,72,59,45,29.94,29.67,12,4,22,0.00
2013-10-28,54.6,41.9,31.7,37.3,31.4,26.5,91,68,42,30.24,29.94,11,3,30,0.00
2013-10-29,47.8,35.5,25.8,28.4,24.9,21.7,93,68,36,30.35,30.23,5,1,11,0.00
2013-10-30,52.4,38.6,29.6,39.4,32.3,25.0,93,79,60,30.24,30.07,7,1,11,0.00
2013-10-31,58.3,41.8,30.8,57.5,40.8,29.5,100,96,93,30.12,29.63,15,2,28,0.49
2013-11-1,66.5,61.6,54.0,61.9,55.9,44.4,95,82,64,29.63,29.29,19,9,33,0.09
2013-11-2,63.5,51.0,40.7,47.8,43.7,38.5,97,78,49,29.66,29.47,9,2,20,0.01
2013-11-3,46.5,38.7,29.4,41.2,26.3,17.2,84,62,39,30.33,29.66,10,5,18,0.00
2013-11-4,41.1,31.7,23.5,22.5,19.0,16.2,86,61,37,30.58,30.33,5,1,13,0.00
2013-11-5,48.1,35.8,24.4,35.0,28.0,21.3,92,75,52,30.59,30.37,11,2,19,0.00
2013-11-6,58.6,48.8,38.5,47.7,41.4,34.3,89,76,59,30.37,29.87,16,6,26,0.00
2013-11-7,58.4,50.6,39.9,56.4,44.4,22.8,94,80,50,29.88,29.58,12,5,21,0.10
2013-11-8,44.9,37.2,30.0,34.9,25.9,21.0,82,64,48,29.98,29.72,14,4,24,0.00
2013-11-9,44.0,37.1,30.1,29.7,25.5,21.8,76,63,48,30.10,29.86,9,3,15,0.00
2013-11-10,48.2,42.2,36.5,38.7,34.0,29.4,86,73,58,29.86,29.61,13,4,26,0.01
2013-11-11,48.6,43.3,37.8,31.2,28.3,24.7,69,56,43,29.98,29.76,10,4,22,0.00
2013-11-12,43.8,33.6,25.4,34.3,21.0,14.5,86,60,47,30.10,29.76,11,4,21,0.00
2013-11-13,33.7,27.5,20.9,18.6,13.7,10.3,77,57,39,30.20,30.03,9,3,16,0.00
2013-11-14,49.9,38.4,27.7,25.9,21.7,18.1,70,52,37,30.03,29.92,10,4,19,0.00
2013-11-15,54.9,39.4,27.1,27.6,23.5,20.0,75,55,29,30.08,29.97,6,1,8,0.00
2013-11-16,58.7,43.6,33.2,35.0,30.8,26.8,85,64,35,30.19,30.07,7,1,9,0.00
2013-11-17,49.3,39.3,31.8,48.5,37.3,29.3,97,92,85,30.17,29.67,4,0,6,0.04
2013-11-18,62.4,56.1,43.4,59.1,44.8,30.8,98,69,41,29.68,29.37,16,6,31,0.23
2013-11-19,43.3,37.0,29.3,30.3,22.6,17.9,72,56,45,30.22,29.58,14,6,35,0.00
2013-11-20,39.2,30.2,24.3,19.0,16.3,13.6,78,57,35,30.51,30.22,10,3,19,0.00
2013-11-21,44.0,32.0,19.1,28.3,21.5,16.7,92,68,38,30.53,30.25,8,1,14,0.00
2013-11-22,42.5,39.1,35.1,41.7,36.6,27.6,97,91,66,30.25,29.72,3,0,5,0.10
2013-11-23,46.4,36.2,24.1,44.2,25.5,14.2,97,65,51,29.85,29.69,14,6,22,0.00
2013-11-24,24.4,20.6,16.8,21.5,5.9,-0.2,90,54,35,30.13,29.72,16,8,34,0.00
2013-11-25,31.8,23.5,12.9,15.0,6.6,-1.1,58,48,33,30.27,30.11,10,4,18,0.00
2013-11-26,34.9,31.2,27.0,30.8,23.6,14.5,95,74,51,30.19,29.89,10,3,16,0.14
2013-11-27,42.0,36.9,32.1,41.2,35.7,30.4,98,95,85,29.89,29.18,6,2,11,1.60
2013-11-28,34.7,26.6,18.8,30.5,15.0,7.9,85,62,43,30.32,29.40,14,6,33,0.00
2013-11-29,31.7,23.9,17.6,17.9,13.1,8.3,80,64,39,30.63,30.32,8,2,18,0.00
2013-11-30,29.3,21.6,10.2,16.1,12.0,7.6,90,68,46,30.69,30.30,5,1,9,0.00
2013-12-1,39.2,32.0,26.1,32.9,26.8,15.1,89,81,61,30.30,29.91,3,0,5,0.00
2013-12-2,39.6,35.2,30.3,35.7,32.4,28.8,95,89,85,29.91,29.78,4,0,6,0.00
2013-12-3,44.7,35.0,28.1,37.3,32.3,26.7,97,90,73,29.86,29.75,3,1,7,0.00
2013-12-4,42.2,30.8,24.4,34.5,27.0,23.3,97,87,62,30.07,29.85,2,0,6,0.01
2013-12-5,44.6,35.0,28.4,44.1,33.5,26.4,98,94,88,30.08,29.78,8,1,12,0.08
2013-12-6,48.0,42.1,32.4,47.5,39.8,31.0,98,92,77,30.04,29.74,6,1,11,0.20
2013-12-7,36.0,32.1,26.7,34.4,26.6,15.7,97,81,57,30.34,29.97,7,2,11,0.20
2013-12-8,29.6,26.4,21.9,21.7,18.7,14.9,90,73,56,30.46,30.33,5,1,7,0.00
2013-12-9,31.8,28.4,24.0,31.0,26.2,18.9,100,92,72,30.36,29.78,5,1,8,0.01
2013-12-10,33.2,29.2,21.5,32.1,25.8,15.9,97,87,76,29.88,29.68,6,2,10,0.00
2013-12-11,30.0,24.2,19.2,21.5,17.1,12.5,89,75,55,30.07,29.88,12,4,17,0.02
2013-12-12,22.3,18.0,13.4,19.6,7.5,0.9,90,65,40,30.17,29.92,9,3,21,0.00
2013-12-13,25.7,18.0,11.3,21.9,11.9,4.0,89,77,61,30.28,29.85,7,4,15,0.00
2013-12-14,12.5,9.8,6.9,9.8,2.4,-2.7,90,72,57,30.49,30.04,7,4,13,0.00
2013-12-15,27.1,21.1,12.2,25.8,19.2,9.8,98,92,88,30.04,29.39,11,4,17,0.00
2013-12-16,24.3,20.2,12.8,21.4,13.7,5.3,92,76,66,30.08,29.61,13,5,28,0.00
2013-12-17,12.6,7.5,0.4,9.3,3.8,-3.0,89,85,69,30.14,29.88,5,2,10,0.00
2013-12-18,29.5,20.9,11.9,22.6,16.1,8.8,88,82,71,29.95,29.82,7,3,12,0.02
2013-12-19,40.4,31.4,22.2,25.9,23.3,18.7,92,73,54,29.98,29.82,11,4,16,0.08
2013-12-20,41.8,35.3,29.7,35.6,30.3,25.1,93,82,66,29.98,29.79,5,1,8,0.20
2013-12-21,47.3,41.4,36.6,43.3,37.2,32.8,100,85,72,29.84,29.72,7,1,9,0.04
2013-12-22,60.7,52.3,40.9,58.4,51.1,39.6,98,96,89,29.81,29.53,15,3,27,0.01
2013-12-23,49.5,40.3,35.8,48.1,38.8,30.6,98,95,81,30.01,29.78,8,2,16,0.36
2013-12-24,35.8,31.1,27.2,30.8,21.4,15.0,83,68,48,30.04,29.95,6,3,11,0.00
2013-12-25,22.6,17.9,11.9,9.9,5.3,1.5,67,58,45,30.40,30.20,8,3,0,0.00
2013-12-26,27.9,23.1,19.2,23.6,18.6,9.2,94,83,64,30.33,29.99,5,2,0,0.00
2013-12-27,33.5,29.8,25.5,22.6,20.6,18.8,80,69,57,30.16,30.06,7,4,0,0.04
2013-12-28,28.3,27.9,27.5,24.1,23.7,23.4,85,84,84,29.98,29.98,4,3,9,0.00
2013-12-29,37.9,33.2,28.8,34.0,30.5,25.4,96,90,75,29.91,29.40,7,2,0,0.88
2013-12-30,37.8,24.9,13.9,34.6,14.6,7.4,97,65,48,30.06,29.56,13,6,26,0.00
2013-12-31,22.1,15.9,8.3,15.1,8.6,2.7,86,73,57,30.08,29.90,8,2,19,0.00
2014-1-1,25.3,19.6,16.7,13.4,8.7,4.2,82,63,48,30.25,30.07,10,2,21,0.00
2014-1-2,17.9,10.8,4.7,14.2,7.8,1.7,98,87,82,30.23,29.75,11,6,20,0.00